Weather in Parnaiba

Brazil     2°54′55″S   41°46′01″W
temp.,
°C
wind,
m/s
gust,
m/s
humid.,
%
clouds,
%
prec.,
mm/h
press.,
hPa
HPBL,
m
21 april, wed
wed2100:00+22e1198100 1.1 101212
03:00+22se1198100 1.2 101132
06:00+22sse1197100 0.1 101212
09:00+28sse0174100 0.1 1014520
12:00+32nnw1153100 0.0 10111760
15:00+28n3473100 0.1 1009429
18:00+25n2480100 0.2 1011133
21:00+25nne1188100 0.5 101316
22 april, thu
thu2200:00+23e119698 1.4 101312
03:00+22ese119790 1.6 101114
06:00+22se119718 0.0 101211
09:00+26e128878 2.1 1013311
12:00+31nne226361 1.3 10111374
15:00+29nne336949 2.4 1009928
18:00+25nne2286100 0.1 101047
21:00+24ne1188100 0.1 101319
23 april, fri
fri2300:00+24e1189100 0.0 101228
03:00+23se1193100 0.0 101030
06:00+22se119435 0.1 101237
09:00+29ese23675 0.1 1013845
12:00+29ene227936 1.4 1011952
15:00+27ne2491100 8.9 1009298
18:00+24ene3896100 7.8 1010181
21:00+23se1598100 15.4 1012182
24 april, sat
sat2400:00+23e1199100 1.8 101158
03:00+22s119995 2.1 101053
06:00+22ssw139999 0.0 1011119
09:00+27s228198 0.0 1013573
12:00+31sse1360100 0.1 10111523
15:00+27nne2390100 2.6 1008182
18:00+24nne2395100 2.2 101050
21:00+23e259786 2.4 1012131
25 april, sun
sun2500:00+23e2897100 0.1 1011209
03:00+23e2898100 0.1 1010233
06:00+22ene2898100 0.0 1010231
09:00+28e357498 0.0 1012774
12:00+31ene245883 0.1 10101677
15:00+30nne346739 0.1 1008637
18:00+24nne249214 0.8 100988
21:00+23ne289747 2.9 1011200